Temp
-3 -3 -4 -3 -4 -4 -4 -4 -4 -4 -4 -4 -4 -5 -5 -5 -5 -5 -5 -5 -6 -6 -6 -7 -7 -7 -7 -7 -7 -7 -6 -7 -7 -7 -7 -7 -7 -7 -8 -8 -7 -8 -8 -9 -9 -9 -9 -9 -9
-3 -3 -4 -3 -4 -4 -4 -4 -4 -4 -4 -4 -4 -4 -5 -5 -5 -5 -5 -6 -6 -6 -6 -7 -7 -7 -7 -7 -7 -6 -6 -6 -7 -7 -7 -7 -7 -7 -7 -8 -8 -8 -8 -8 -8 -9 -9 -9 -9
-3 -3 -4 -4 -5 -4 -4 -4 -4 -4 -4 -4 -5 -5 -5 -5 -5 -5 -5 -5 -5 -6 -6 -6 -6 -7 -7 -7 -7 -7 -6 -7 -7 -7 -7 -7 -7 -7 -7 -8 -8 -8 -9 -8 -8 -8 -9 -9 -9
-4 -4 -4 -4 -4 -4 -4 -4 -4 -4 -4 -4 -4 -4 -5 -5 -5 -5 -5 -5 -5 -5 -6 -6 -6 -6 -7 -7 -7 -7 -7 -7 -7 -7 -7 -7 -7 -7 -8 -8 -8 -8 -9 -8 -8 -8 -8 -8 -9
-5 -4 -4 -4 -4 -4 -4 -4 -4 -5 -4 -4 -4 -4 -4 -4 -5 -5 -5 -5 -5 -5 -6 -6 -6 -6 -6 -6 -6 -6 -7 -7 -7 -7 -7 -7 -7 -8 -8 -8 -8 -8 -8 -8 -8 -8 -8 -8 -9
-5 -4 -4 -4 -4 -4 -4 -4 -4 -5 -5 -4 -4 -5 -4 -4 -5 -5 -6 -6 -5 -5 -6 -6 -6 -6 -6 -6 -7 -7 -7 -7 -7 -7 -7 -7 -7 -7 -7 -7 -7 -7 -7 -8 -7 -8 -8 -8 -8
-5 -5 -5 -4 -4 -5 -4 -4 -5 -5 -5 -5 -4 -5 -5 -5 -5 -5 -6 -6 -6 -6 -6 -6 -6 -6 -6 -6 -6 -6 -7 -7 -7 -7 -7 -7 -7 -7 -7 -7 -7 -7 -7 -7 -7 -7 -8 -8 -8
-5 -5 -5 -4 -5 -5 -5 -5 -5 -5 -5 -5 -4 -5 -5 -5 -5 -5 -6 -6 -6 -6 -6 -6 -6 -6 -7 -6 -6 -6 -6 -7 -7 -6 -6 -7 -7 -7 -7 -7 -7 -7 -7 -7 -7 -7 -8 -8 -8
-5 -5 -5 -5 -5 -4 -5 -5 -5 -5 -5 -5 -5 -6 -5 -5 -5 -5 -6 -6 -6 -6 -7 -7 -6 -6 -7 -6 -6 -6 -6 -7 -7 -6 -6 -7 -7 -7 -7 -7 -7 -7 -7 -7 -7 -7 -8 -8 -8
-6 -5 -5 -5 -5 -5 -5 -5 -5 -5 -5 -5 -6 -5 -6 -6 -6 -5 -6 -6 -6 -6 -6 -7 -7 -6 -6 -6 -6 -6 -6 -6 -6 -6 -7 -7 -7 -7 -7 -7 -7 -8 -8 -7 -7 -7 -7 -8 -8
-6 -5 -5 -5 -5 -5 -5 -5 -5 -5 -6 -6 -5 -6 -6 -6 -6 -6 -6 -6 -6 -6 -7 -7 -7 -7 -7 -7 -7 -6 -7 -7 -6 -7 -7 -7 -7 -7 -7 -7 -7 -7 -8 -7 -7 -7 -7 -8 -8
-7 -6 -6 -5 -5 -5 -5 -5 -5 -5 -5 -5 -5 -6 -6 -6 -6 -6 -6 -7 -7 -7 -7 -7 -7 -7 -7 -7 -7 -7 -7 -7 -7 -7 -6 -6 -6 -7 -7 -6 -7 -7 -7 -7 -8 -8 -8 -8 -9
-7 -7 -7 -6 -6 -6 -6 -6 -6 -5 -5 -5 -5 -6 -6 -6 -6 -6 -6 -6 -7 -7 -7 -7 -7 -7 -7 -7 -7 -7 -7 -7 -7 -7 -6 -6 -6 -7 -7 -7 -7 -7 -7 -7 -8 -8 -8 -8 -8
-7 -7 -6 -6 -6 -7 -6 -6 -6 -6 -6 -6 -6 -6 -6 -6 -6 -6 -6 -6 -7 -6 -7 -7 -7 -7 -7 -7 -7 -7 -7 -7 -7 -7 -7 -6 -7 -7 -7 -6 -7 -7 -7 -7 -8 -8 -8 -8 -8
-7 -7 -7 -6 -6 -7 -7 -7 -7 -7 -7 -6 -6 -6 -7 -7 -6 -6 -6 -6 -6 -6 -6 -7 -7 -7 -7 -7 -7 -7 -7 -7 -7 -7 -7 -7 -7 -7 -7 -7 -7 -6 -7 -8 -7 -7 -8 -8 -8
-8 -7 -7 -7 -7 -7 -7 -7 -7 -7 -7 -7 -7 -7 -7 -7 -6 -6 -6 -6 -6 -6 -6 -6 -7 -7 -7 -7 -8 -7 -7 -7 -7 -7 -7 -7 -7 -7 -7 -6 -6 -7 -7 -7 -7 -7 -8 -8 -8
-8 -7 -7 -7 -7 -7 -8 -8 -8 -8 -8 -7 -7 -7 -7 -7 -6 -6 -6 -6 -6 -6 -6 -6 -7 -7 -7 -8 -7 -7 -7 -7 -7 -7 -7 -7 -7 -7 -7 -7 -7 -7 -7 -7 -7 -7 -7 -8 -9
-8 -7 -7 -8 -8 -8 -8 -8 -8 -8 -8 -8 -7 -7 -7 -7 -7 -6 -6 -7 -6 -7 -6 -7 -6 -7 -7 -7 -7 -8 -7 -7 -7 -7 -7 -7 -7 -7 -7 -7 -7 -7 -7 -7 -7 -7 -7 -8 -8
-8 -7 -7 -7 -8 -8 -8 -8 -8 -8 -8 -8 -7 -7 -7 -7 -7 -6 -6 -6 -6 -7 -6 -7 -7 -7 -7 -7 -7 -7 -8 -8 -7 -7 -7 -7 -7 -7 -7 -7 -7 -7 -7 -7 -7 -7 -7 -7 -7
-8 -7 -7 -7 -7 -7 -8 -8 -8 -8 -8 -8 -7 -7 -7 -7 -7 -7 -6 -6 -6 -6 -6 -6 -7 -7 -7 -7 -7 -7 -8 -7 -7 -7 -6 -7 -7 -7 -7 -7 -7 -8 -7 -8 -7 -7 -8 -7 -7
-8 -8 -8 -7 -7 -7 -7 -8 -8 -8 -8 -8 -8 -8 -8 -7 -7 -7 -7 -7 -7 -7 -6 -6 -6 -5 -6 -7 -7 -7 -8 -7 -7 -7 -7 -7 -7 -7 -7 -7 -7 -8 -8 -8 -8 -7 -8 -7 -7
-8 -8 -7 -7 -7 -7 -7 -8 -8 -8 -8 -8 -8 -8 -8 -8 -7 -7 -7 -8 -8 -7 -7 -7 -6 -6 -5 -6 -7 -7 -7 -8 -8 -8 -8 -8 -7 -7 -7 -7 -7 -7 -8 -7 -7 -7 -7 -8 -8
-8 -8 -7 -7 -7 -7 -7 -7 -8 -8 -7 -7 -7 -8 -8 -9 -8 -7 -7 -8 -8 -8 -8 -8 -8 -8 -7 -6 -5 -6 -7 -7 -7 -7 -7 -8 -8 -8 -7 -7 -7 -7 -8 -7 -7 -7 -7 -7 -8
-8 -8 -8 -8 -7 -7 -8 -7 -7 -7 -8 -7 -7 -8 -8 -8 -8 -8 -8 -7 -7 -8 -8 -8 -8 -8 -8 -8 -7 -6 -6 -6 -7 -7 -7 -8 -8 -8 -7 -8 -8 -8 -8 -8 -7 -7 -8 -8 -8
-8 -9 -9 -8 -8 -8 -7 -7 -7 -7 -7 -7 -7 -7 -8 -8 -8 -8 -7 -7 -7 -7 -8 -8 -8 -8 -8 -8 -8 -8 -8 -7 -7 -7 -7 -7 -7 -8 -8 -8 -8 -8 -8 -8 -8 -8 -8 -8 -8
-8 -9 -9 -9 -8 -8 -7 -7 -7 -7 -7 -7 -7 -7 -8 -8 -7 -7 -8 -8 -9 -9 -8 -8 -9 -8 -8 -8 -8 -8 -8 -8 -8 -8 -8 -8 -8 -7 -7 -8 -8 -8 -8 -8 -8 -8 -8 -8 -8
-8 -9 -9 -8 -8 -8 -8 -8 -7 -7 -7 -7 -7 -8 -7 -8 -8 -8 -8 -8 -8 -9 -9 -8 -7 -8 -8 -8 -9 -8 -8 -8 -7 -7 -8 -7 -8 -8 -7 -7 -8 -8 -8 -8 -8 -8 -8 -8 -8
-8 -8 -8 -8 -8 -8 -8 -8 -8 -8 -8 -8 -8 -8 -8 -8 -8 -8 -9 -9 -9 -8 -9 -9 -9 -9 -8 -8 -8 -8 -8 -9 -8 -7 -9 -8 -8 -8 -8 -7 -8 -8 -8 -8 -8 -8 -8 -8 -8
-9 -9 -9 -8 -8 -8 -8 -8 -8 -8 -8 -8 -8 -8 -8 -8 -8 -8 -9 -9 -9 -8 -8 -8 -8 -8 -7 -8 -8 -8 -8 -8 -8 -7 -8 -7 -9 -8 -9 -8 -7 -8 -8 -8 -8 -8 -8 -8 -8
-9 -9 -9 -9 -8 -8 -8 -8 -8 -8 -8 -8 -9 -9 -9 -9 -9 -9 -9 -9 -9 -8 -8 -8 -8 -8 -8 -8 -8 -8 -8 -8 -8 -8 -8 -8 -8 -8 -8 -8 -7 -8 -7 -8 -8 -8 -8 -8 -8
Height
5916 5916 5916 5917 5921 5918 5918 5918 5916 5914 5913 5911 5910 5909 5909 5907 5908 5910 5907 5907 5907 5906 5907 5909 5910 5908 5908 5909 5910 5912 5911 5910 5910 5910 5911 5912 5913 5914 5913 5913 5912 5911 5912 5912 5912 5911 5911 5912 5911
5916 5917 5917 5918 5920 5918 5917 5916 5915 5915 5915 5912 5910 5908 5909 5909 5908 5909 5908 5908 5908 5907 5908 5909 5910 5910 5910 5909 5909 5911 5913 5912 5913 5913 5914 5913 5914 5914 5914 5913 5912 5912 5912 5912 5912 5911 5911 5911 5911
5917 5917 5918 5919 5918 5917 5917 5916 5915 5916 5916 5913 5911 5909 5908 5908 5909 5909 5908 5908 5907 5907 5908 5908 5910 5911 5911 5911 5911 5911 5913 5914 5915 5916 5915 5915 5915 5915 5915 5913 5913 5912 5911 5912 5912 5911 5912 5911 5911
5917 5918 5920 5919 5918 5916 5916 5917 5916 5915 5916 5914 5911 5909 5908 5907 5909 5909 5909 5908 5907 5907 5907 5907 5909 5910 5911 5911 5911 5912 5913 5914 5916 5917 5917 5917 5916 5916 5916 5914 5914 5913 5912 5912 5912 5912 5912 5912 5912
5918 5919 5918 5918 5918 5917 5916 5916 5915 5914 5913 5912 5909 5908 5907 5907 5907 5909 5910 5908 5907 5907 5908 5907 5909 5910 5912 5912 5913 5912 5913 5914 5915 5918 5919 5918 5917 5917 5916 5915 5915 5914 5914 5913 5912 5912 5913 5913 5914
5919 5919 5919 5918 5919 5918 5916 5915 5914 5912 5911 5911 5910 5909 5908 5907 5907 5907 5908 5909 5908 5907 5908 5908 5909 5911 5912 5912 5912 5911 5912 5914 5916 5917 5918 5919 5918 5918 5916 5916 5916 5915 5915 5913 5913 5913 5914 5914 5915
5920 5920 5920 5920 5919 5919 5917 5916 5915 5912 5911 5911 5910 5909 5909 5908 5907 5907 5908 5909 5909 5909 5909 5910 5910 5910 5911 5911 5910 5909 5910 5911 5914 5915 5917 5919 5919 5918 5917 5916 5917 5916 5915 5914 5914 5914 5915 5916 5917
5922 5921 5920 5920 5920 5919 5917 5916 5915 5912 5912 5911 5909 5909 5910 5909 5908 5908 5907 5909 5909 5909 5910 5910 5910 5910 5909 5909 5909 5909 5909 5909 5911 5913 5916 5918 5918 5917 5917 5917 5916 5916 5916 5916 5916 5916 5917 5917 5918
5921 5920 5918 5919 5920 5919 5917 5916 5915 5914 5913 5912 5910 5909 5910 5910 5910 5908 5908 5909 5910 5910 5910 5910 5910 5910 5909 5908 5908 5907 5905 5909 5911 5913 5915 5917 5918 5917 5917 5917 5917 5917 5917 5917 5916 5916 5918 5917 5918
5920 5920 5919 5920 5919 5918 5917 5916 5916 5915 5913 5912 5911 5911 5911 5911 5910 5910 5910 5911 5911 5911 5911 5910 5909 5909 5909 5907 5908 5902 5905 5906 5908 5912 5915 5916 5916 5917 5918 5917 5918 5918 5918 5918 5917 5917 5919 5918 5918
5919 5920 5919 5920 5919 5918 5917 5916 5915 5914 5913 5913 5912 5911 5912 5911 5911 5911 5912 5912 5913 5913 5912 5911 5910 5910 5909 5910 5909 5908 5904 5907 5910 5911 5915 5916 5916 5917 5918 5918 5919 5919 5920 5919 5918 5919 5920 5920 5920
5919 5919 5919 5920 5921 5919 5917 5917 5915 5915 5914 5913 5912 5912 5912 5912 5912 5912 5912 5913 5913 5914 5914 5913 5912 5911 5910 5910 5910 5909 5909 5909 5911 5912 5914 5915 5916 5918 5918 5918 5919 5920 5920 5920 5919 5919 5920 5919 5919
5919 5919 5920 5919 5920 5920 5919 5918 5916 5915 5914 5914 5913 5913 5913 5913 5913 5913 5913 5914 5915 5915 5915 5914 5913 5912 5912 5911 5910 5908 5909 5910 5911 5913 5914 5916 5917 5919 5918 5918 5919 5920 5920 5920 5920 5920 5921 5919 5919
5920 5921 5921 5920 5920 5921 5921 5920 5919 5917 5916 5914 5914 5913 5913 5913 5914 5914 5913 5914 5914 5915 5915 5914 5914 5913 5913 5912 5912 5911 5911 5911 5912 5913 5914 5917 5917 5917 5918 5918 5919 5920 5919 5919 5920 5920 5921 5920 5920
5921 5923 5923 5921 5921 5922 5922 5923 5921 5920 5918 5917 5916 5915 5914 5915 5915 5915 5914 5915 5915 5915 5915 5914 5913 5912 5912 5913 5913 5912 5911 5913 5913 5914 5914 5916 5917 5917 5917 5917 5917 5920 5920 5919 5920 5920 5920 5920 5921
5922 5923 5923 5923 5922 5923 5924 5925 5923 5922 5921 5920 5918 5918 5917 5916 5916 5915 5915 5915 5915 5916 5915 5914 5913 5913 5913 5913 5913 5912 5913 5914 5914 5914 5915 5915 5915 5916 5917 5916 5916 5919 5920 5919 5920 5919 5919 5919 5920
5922 5923 5924 5924 5924 5924 5925 5926 5926 5925 5924 5922 5922 5921 5921 5919 5917 5917 5916 5916 5915 5915 5914 5914 5914 5914 5913 5913 5912 5912 5913 5914 5915 5914 5914 5915 5915 5915 5917 5917 5918 5919 5920 5920 5920 5920 5919 5919 5919
5922 5923 5924 5924 5926 5925 5925 5927 5927 5927 5926 5925 5923 5923 5922 5920 5918 5917 5917 5916 5915 5914 5913 5913 5913 5913 5912 5912 5912 5912 5912 5912 5913 5913 5913 5914 5915 5915 5916 5917 5918 5919 5919 5920 5921 5920 5919 5919 5917
5922 5923 5924 5924 5925 5926 5927 5928 5928 5928 5928 5927 5925 5924 5922 5921 5920 5918 5917 5917 5916 5915 5914 5913 5912 5912 5911 5912 5912 5913 5913 5912 5911 5912 5912 5911 5913 5914 5914 5916 5917 5918 5919 5919 5921 5920 5919 5919 5919
5922 5923 5924 5925 5926 5927 5929 5929 5929 5929 5928 5928 5927 5925 5923 5922 5920 5918 5918 5916 5916 5916 5915 5914 5914 5913 5912 5912 5911 5911 5911 5911 5909 5910 5910 5910 5910 5911 5912 5914 5915 5916 5917 5917 5919 5920 5920 5920 5921
5920 5922 5923 5924 5926 5927 5929 5930 5930 5930 5929 5929 5928 5927 5924 5923 5922 5921 5919 5918 5917 5917 5916 5916 5915 5914 5913 5913 5912 5911 5910 5911 5911 5910 5910 5909 5910 5909 5910 5911 5912 5914 5915 5915 5915 5917 5919 5919 5921
5919 5920 5922 5923 5924 5926 5928 5930 5930 5930 5930 5929 5927 5925 5924 5922 5923 5922 5920 5918 5916 5916 5916 5915 5915 5915 5914 5913 5913 5912 5911 5910 5910 5909 5908 5908 5908 5908 5907 5908 5908 5909 5911 5911 5912 5914 5917 5918 5918
5918 5919 5920 5921 5923 5924 5926 5930 5930 5930 5931 5930 5928 5926 5924 5923 5922 5922 5921 5919 5918 5917 5916 5915 5914 5914 5914 5914 5912 5912 5911 5910 5909 5908 5907 5906 5906 5906 5906 5906 5907 5907 5907 5909 5911 5912 5915 5915 5916
5915 5917 5918 5919 5921 5924 5926 5928 5929 5929 5930 5930 5928 5927 5925 5924 5922 5921 5920 5919 5919 5918 5916 5914 5914 5913 5912 5912 5913 5913 5911 5910 5909 5908 5908 5906 5905 5905 5904 5904 5904 5905 5905 5907 5908 5910 5912 5913 5914
5912 5916 5917 5919 5920 5922 5924 5927 5927 5928 5928 5929 5927 5927 5926 5924 5923 5922 5920 5918 5916 5916 5916 5915 5913 5911 5911 5912 5911 5912 5911 5910 5909 5908 5907 5907 5906 5903 5903 5902 5903 5902 5903 5905 5906 5907 5910 5910 5911
5911 5914 5915 5917 5918 5920 5922 5924 5925 5925 5925 5926 5926 5926 5925 5925 5924 5922 5920 5918 5914 5914 5912 5914 5912 5910 5909 5910 5910 5910 5909 5908 5906 5904 5904 5904 5905 5904 5901 5901 5899 5901 5901 5902 5904 5905 5906 5908 5909
5909 5911 5913 5915 5916 5918 5920 5922 5923 5923 5923 5924 5925 5925 5924 5924 5922 5920 5918 5916 5915 5913 5911 5910 5909 5910 5909 5909 5907 5906 5904 5904 5904 5901 5899 5899 5900 5901 5900 5899 5899 5898 5898 5898 5900 5902 5904 5905 5906
5907 5910 5912 5913 5915 5915 5916 5918 5920 5920 5920 5920 5921 5922 5921 5920 5919 5917 5916 5914 5913 5911 5910 5909 5907 5906 5905 5906 5904 5901 5900 5901 5899 5894 5893 5894 5894 5895 5896 5896 5896 5896 5896 5896 5896 5898 5899 5900 5901
5907 5907 5908 5910 5911 5911 5912 5915 5916 5916 5917 5917 5917 5916 5916 5915 5914 5913 5911 5910 5908 5908 5907 5905 5904 5902 5901 5901 5899 5898 5897 5895 5895 5892 5890 5889 5889 5887 5888 5891 5892 5891 5890 5891 5892 5893 5895 5895 5895
5902 5903 5904 5906 5907 5907 5907 5910 5911 5911 5911 5911 5911 5910 5909 5908 5907 5906 5906 5906 5904 5904 5903 5901 5899 5898 5898 5897 5896 5892 5889 5889 5890 5888 5884 5881 5879 5879 5878 5885 5887 5886 5884 5885 5886 5887 5888 5890 5890
Wind_Speed
1 4 5 10 5 11 11 10 10 10 9 11 9 9 7 6 5 4 4 3 5 9 9 7 4 2 2 3 2 3 7 9 10 12 13 12 13 13 12 10 10 9 6 4 3 3 5 5 6
3 4 3 10 6 6 5 7 11 8 7 9 7 8 5 4 4 2 2 3 4 7 8 8 7 6 3 2 2 3 5 7 9 11 11 12 14 13 11 11 10 9 6 5 3 3 5 4 5
4 6 11 8 11 5 3 6 7 5 4 6 5 5 4 3 2 3 1 1 3 7 7 6 7 5 5 4 2 0 2 4 8 11 10 13 12 11 11 11 9 9 6 6 4 5 5 5 4
5 4 3 7 8 6 7 10 4 4 1 2 3 3 2 3 1 1 2 2 1 4 5 4 5 4 6 6 4 1 3 3 7 9 10 11 11 10 11 9 9 9 6 6 4 4 4 4 3
5 7 7 5 7 5 7 9 7 5 5 5 3 3 1 1 2 2 3 2 2 3 2 4 8 7 6 6 4 2 3 4 7 7 9 9 9 9 8 9 7 8 7 6 5 5 5 4 4
2 6 5 4 5 4 4 6 6 4 4 5 4 3 1 0 1 3 2 2 3 4 4 8 8 7 7 5 2 2 3 3 4 5 6 7 7 6 7 8 7 8 6 6 7 6 6 7 4
2 3 5 5 3 3 3 3 4 6 5 6 5 3 4 2 3 2 2 1 3 4 5 4 3 4 2 4 2 3 4 4 3 1 2 5 5 6 8 7 8 9 8 6 7 6 7 7 5
0 4 5 6 0 0 0 2 5 4 5 6 1 7 4 4 5 4 1 2 3 3 3 4 5 2 2 5 3 2 4 4 2 4 2 2 4 6 7 8 8 10 9 7 6 5 7 6 5
5 8 5 2 3 4 6 3 1 3 6 9 12 7 7 5 5 3 3 3 3 2 1 1 2 3 1 2 8 4 5 7 3 4 3 3 5 5 6 6 7 10 9 8 6 6 7 5 4
6 5 1 3 6 6 6 4 3 1 3 7 7 7 4 3 4 2 3 3 3 2 1 2 1 3 1 3 9 7 5 2 8 3 3 4 5 5 6 4 6 7 9 9 6 5 7 7 5
6 2 5 11 12 10 9 5 3 3 2 3 3 4 3 1 0 2 2 2 2 2 2 2 1 4 4 5 6 2 4 5 8 9 4 3 5 6 4 5 7 6 8 8 7 8 10 7 4
6 6 8 14 14 12 9 6 2 1 1 1 1 1 3 4 5 4 2 2 1 1 2 2 2 2 5 4 5 6 6 6 8 6 5 4 4 5 3 4 6 7 8 5 7 8 9 9 6
4 8 8 10 15 14 11 7 6 3 3 3 2 3 5 4 2 2 3 3 2 1 2 2 2 1 1 3 7 6 10 7 4 5 5 2 2 2 1 3 4 4 5 5 4 7 8 10 10
9 9 8 10 15 16 13 13 12 9 8 9 8 7 6 5 3 1 2 2 2 1 2 1 1 2 1 3 5 5 11 9 5 3 5 2 1 2 2 5 5 6 6 4 5 6 6 7 8
11 14 10 11 15 17 16 16 17 14 12 13 13 10 8 5 4 4 4 2 1 0 3 4 3 6 3 0 1 3 6 8 7 5 2 2 2 0 2 4 6 9 7 5 3 4 4 4 4
13 14 14 13 13 15 15 12 15 13 12 13 14 15 12 8 5 5 5 5 4 3 3 4 3 3 4 0 2 4 4 4 2 3 1 2 4 4 2 5 13 12 9 6 3 3 4 3 3
12 13 13 14 15 16 14 10 12 12 11 11 10 11 10 11 10 7 4 4 4 5 5 4 2 2 3 2 0 0 1 0 0 2 3 2 5 6 2 7 7 8 10 8 6 4 2 2 5
11 14 14 15 16 15 15 11 10 10 9 7 7 9 10 9 8 8 9 7 5 3 2 3 2 1 2 4 1 4 4 3 3 3 3 1 3 7 5 3 3 4 12 12 8 6 4 3 1
13 11 13 15 17 17 12 10 11 11 8 4 3 5 5 5 6 6 6 8 7 6 4 1 2 2 4 5 4 4 5 6 9 9 4 2 1 6 6 5 3 2 6 12 11 10 7 5 7
9 11 8 8 11 13 13 11 16 13 9 9 6 5 5 4 4 5 5 7 8 8 7 4 2 2 3 4 5 3 3 4 4 5 3 1 1 6 8 6 4 4 2 11 15 12 10 7 7
7 9 11 9 7 12 14 12 14 9 6 7 9 11 8 4 3 5 7 11 11 12 10 9 8 7 4 3 3 3 3 3 3 4 6 4 3 2 8 8 6 6 7 9 14 15 12 11 8
8 10 6 8 11 11 15 16 13 9 3 3 7 11 13 13 5 3 6 11 12 12 15 15 15 15 13 6 5 6 6 6 6 4 6 6 6 5 5 8 7 6 10 11 16 16 13 12 10
9 9 9 8 9 11 16 16 13 9 4 2 5 9 11 15 8 5 6 9 11 12 14 16 18 19 17 15 12 10 9 11 12 10 8 7 7 8 5 7 8 6 6 6 12 12 13 11 11
11 10 12 10 10 11 16 16 9 7 6 4 5 6 6 7 6 5 5 8 8 7 10 15 15 20 16 15 14 14 14 13 15 16 15 13 11 11 8 9 10 9 6 7 8 14 16 15 14
13 15 12 11 11 14 15 14 7 5 6 7 7 4 2 5 2 1 3 7 20 14 12 11 15 16 18 15 15 17 16 13 16 20 20 18 17 14 12 10 11 10 9 8 7 9 12 15 17
17 18 14 12 12 13 15 8 7 7 8 7 4 3 2 2 2 5 9 16 21 14 17 16 12 16 16 18 13 15 19 18 18 17 18 20 20 19 15 14 12 13 12 11 12 13 12 14 18
20 20 17 16 15 14 15 13 8 7 7 5 5 7 5 4 7 9 10 14 14 13 19 19 16 19 17 14 13 15 26 18 21 28 24 20 20 20 18 19 15 15 14 12 13 16 17 17 17
19 19 18 19 15 16 18 18 14 10 8 11 9 8 10 11 9 9 12 14 14 12 13 15 21 28 26 23 22 23 19 12 24 27 21 17 18 19 20 21 21 20 17 18 16 15 17 18 18
18 21 22 20 21 22 22 20 17 14 14 13 13 14 13 14 12 11 11 13 15 18 17 20 25 29 29 28 22 18 25 26 24 16 11 14 22 21 19 22 23 23 22 22 20 20 21 20 20
18 18 24 27 26 24 23 21 15 15 16 17 17 17 18 18 19 17 16 19 24 27 24 25 27 28 29 27 27 27 27 26 27 23 21 24 26 23 24 22 22 23 25 25 24 24 25 24 24
Wind_Direction
151 76 77 106 94 74 65 36 37 49 81 68 75 77 70 68 96 100 109 139 150 146 155 167 182 200 57 335 281 29 63 69 68 67 69 73 73 63 59 52 53 53 56 55 48 104 138 116 120
134 76 352 51 60 126 58 32 30 49 102 69 69 77 78 77 78 85 105 124 134 167 165 175 195 210 185 39 103 11 7 62 58 66 69 75 68 62 59 55 47 44 55 59 58 98 127 137 137
118 82 34 22 65 120 76 14 28 41 86 96 86 80 95 91 56 105 61 45 125 125 138 179 196 207 203 191 80 312 17 45 62 58 63 72 66 62 56 53 44 41 53 57 66 85 118 140 128
62 54 359 18 20 44 38 27 77 16 327 261 90 101 98 111 91 46 75 334 171 161 125 140 181 187 184 207 208 196 95 86 54 50 54 70 71 65 55 52 44 46 62 66 80 113 111 128 141
60 58 59 41 18 16 334 359 18 15 23 24 73 66 103 101 127 73 19 13 148 142 83 133 148 137 135 167 166 161 85 30 46 37 50 68 71 77 69 59 52 58 82 79 97 120 118 102 95
65 21 21 15 13 22 332 359 9 344 2 357 7 97 94 103 91 93 59 350 136 117 78 132 131 135 146 130 121 163 126 73 39 30 42 66 78 75 75 67 70 67 85 91 110 123 101 104 103
337 345 327 348 47 71 27 12 334 321 334 322 318 142 131 59 18 52 83 294 148 122 123 140 156 128 155 164 132 106 137 142 103 32 0 59 81 75 65 73 72 74 91 88 114 122 114 102 107
98 35 350 321 147 182 337 357 306 319 359 20 356 164 112 64 24 359 33 266 205 185 163 167 177 190 111 152 158 131 122 92 132 163 128 94 88 82 70 72 71 75 79 80 92 101 108 120 133
356 353 325 317 78 98 111 119 274 20 41 48 64 115 86 35 12 6 344 295 257 214 158 194 129 95 133 167 261 236 210 98 72 130 126 113 78 62 51 68 71 73 82 81 84 97 110 115 129
349 1 32 80 103 119 131 172 178 86 21 43 64 83 77 8 351 359 338 280 269 249 141 122 202 358 52 174 298 260 336 280 170 141 124 103 84 63 57 76 86 81 87 99 78 83 82 115 131
332 320 123 105 103 103 115 132 155 112 40 23 51 80 80 129 326 51 7 306 291 262 227 237 331 53 82 192 264 297 69 108 142 141 135 123 99 78 55 72 79 91 94 113 88 95 77 92 137
319 131 117 113 111 109 107 110 89 55 81 307 358 28 62 50 57 59 66 36 346 242 183 181 136 82 83 49 349 202 165 141 137 139 150 131 104 87 41 42 77 106 99 106 116 104 80 74 110
216 133 125 116 110 101 96 86 74 52 73 103 115 82 70 91 66 43 33 56 57 270 185 195 135 100 58 14 18 189 170 130 140 169 179 166 70 77 340 207 27 115 123 104 120 121 89 83 109
151 156 154 129 109 103 100 96 83 73 69 72 72 73 59 62 65 74 29 78 75 81 111 155 38 21 56 20 42 65 101 87 95 157 190 154 145 53 152 249 308 185 157 151 120 138 99 97 115
149 165 139 130 120 110 105 96 81 69 65 70 67 64 59 54 54 57 50 67 26 41 107 124 59 37 73 99 99 62 86 67 81 89 94 191 207 216 119 282 191 183 168 180 157 125 114 103 100
162 149 128 123 125 114 107 94 88 77 68 66 69 66 61 62 68 64 57 64 46 70 65 85 115 72 61 61 325 107 95 83 51 47 13 202 200 214 12 78 147 175 182 185 187 197 155 153 178
158 145 132 127 134 121 110 102 94 88 73 64 64 72 71 64 69 81 85 76 59 66 68 77 78 90 74 80 284 37 333 81 221 339 352 231 204 200 183 104 124 168 194 199 203 215 203 195 248
165 153 145 140 147 141 137 134 123 106 94 67 53 56 63 69 52 55 64 72 75 79 82 122 125 106 110 89 135 256 273 279 299 299 338 290 199 202 181 160 156 240 201 204 213 199 187 83 133
176 183 170 169 162 155 150 136 146 133 132 119 40 34 37 49 52 41 44 58 59 80 73 60 225 178 159 136 178 235 263 277 278 280 253 51 210 191 200 203 212 126 194 207 215 207 196 169 125
184 218 206 206 184 166 149 146 147 131 116 96 72 18 345 4 22 13 35 43 39 45 40 40 335 289 214 152 168 206 270 290 325 209 257 12 146 195 203 211 222 265 252 212 215 212 213 212 193
240 246 233 224 200 169 157 159 148 145 111 86 80 58 24 333 5 11 20 34 26 16 8 2 2 353 301 273 252 230 247 263 267 251 276 292 301 211 218 233 235 247 278 246 214 213 212 214 208
235 230 198 186 180 180 171 161 159 176 161 104 67 60 43 33 4 40 61 40 28 24 19 14 1 349 350 312 302 291 278 268 261 264 281 276 265 272 242 243 249 268 291 239 210 208 218 219 220
225 218 205 197 190 181 176 171 179 194 199 117 71 40 41 65 63 90 83 32 23 33 28 27 23 12 355 337 323 308 297 287 280 275 270 273 268 262 253 233 245 262 306 203 209 224 220 223 231
213 207 209 197 196 180 180 185 174 172 205 192 138 88 41 82 80 91 86 43 35 23 33 27 10 9 358 353 335 315 308 299 294 294 289 279 269 269 246 234 239 251 260 240 233 233 233 237 241
191 196 194 211 220 207 208 206 213 192 181 196 140 126 92 55 163 238 325 358 5 339 332 337 1 356 354 339 339 335 322 308 300 300 293 286 278 267 267 248 248 245 247 257 253 226 235 245 254
191 201 197 205 223 220 221 226 243 234 237 230 198 127 145 318 338 309 317 315 13 352 331 337 327 322 319 331 319 330 315 308 309 291 288 284 281 274 265 255 242 243 249 246 249 250 243 247 251
203 210 211 211 224 235 232 231 258 242 219 242 242 231 203 346 313 315 318 337 339 323 315 317 311 320 330 345 317 312 309 292 327 316 265 268 274 272 268 265 256 248 241 249 245 245 246 241 252
214 218 225 226 230 242 245 250 264 270 263 286 290 238 249 287 288 299 304 307 309 309 307 306 297 312 322 318 313 309 321 295 309 311 240 253 262 267 270 263 256 255 253 252 243 240 245 247 246
236 234 239 239 237 248 259 264 267 268 267 270 273 281 285 294 293 291 297 295 292 293 284 286 291 298 311 311 314 299 293 300 300 296 270 286 266 252 253 260 263 258 254 252 250 245 248 246 244
246 249 248 251 252 257 262 268 270 279 286 291 296 295 299 303 307 303 301 291 286 286 290 302 298 291 294 297 298 300 299 294 287 293 294 293 299 275 246 255 254 266 265 258 254 248 246 244 245